User: anonymous   Login
Location: Terra Rouge Observatory
(46.0000°N, 62.7500°W)
Time: 21:03:41
(UTC-03:00)
Language:

Landsat 5 - Orbit

View from above orbital plane
View from above orbital plane
View from above satellite
View from above satellite

Ground track
Ground track

The orbit data is extracted from the following two-line orbital elements,

1 14780U 84021A   17147.85326345 +.00000428 +00000-0 +45903-4 0  9990
2 14780 098.0374 259.4196 0089849 235.7500 123.5184 14.91479991772845
Epoch (UTC): 27 May 2017 20:28:41
Eccentricity: 0.0089849
inclination: 98.0374°
perigee height: 530 km
apogee height: 656 km
right ascension of ascending node: 259.4196°
argument of perigee: 235.7500°
revolutions per day: 14.91479991
mean anomaly at epoch: 123.5184°
orbit number at epoch: 77284

The dashed part of the orbit path shows where the satellite is in the earth's shadow,  

DLR